Canadian, TX

2:53 AM CDT on September 25, 2016 (GMT -0500)
Hemphill County

Weather History for KHHF - December, 2013

Change the Weather History Date:

Sunday, December 8, 2013

  Actual Average (KPPA) Record (KPPA)
Temperature  
Mean Temperature 36 °F -  
Max Temperature 55 °F 50 °F 72 °F (1981)
Min Temperature 17 °F 25 °F 5 °F (1978)
Degree Days  
Heating Degree Days 29    
Moisture  
Dew Point 16 °F    
Average Humidity 62    
Maximum Humidity 84    
Minimum Humidity 17    
Precipitation  
Precipitation 0.00 in - - ()
Sea Level Pressure  
Sea Level Pressure 29.95 in    
Wind  
Wind Speed 11 mph (SSW)    
Max Wind Speed 29 mph    
Max Gust Speed 37 mph    
Visibility 10 miles    
Events      
Averages and records for this station are not official NWS values.
T = Trace of Precipitation, MM = Missing Value Source: NWS Daily Summary

Daily Weather History Graph

Daily Weather History Graph

Search for Another Location

Airport or City:

Trip Planner

Search our weather history database for the weather conditions in past years. The results will help you decide how hot, cold, wet, or windy it might be!

Date:

Astronomy

Dec. 08, 2013 Rise Set
Actual Time 7:39 AM CST 5:27 PM CST
Civil Twilight 7:11 AM CST 5:55 PM CST
Nautical Twilight 6:39 AM CST 6:27 PM CST
Astronomical Twilight 6:08 AM CST 6:58 PM CST
Moon 12:10 PM CST (12/8) No Moon Set
Length of Visible Light 10h 44m
Length of Day
9h 47m
Waxing Crescent, 40% of the Moon is Illuminated
Dec 8
Waxing Crescent
Dec 9
First Quarter
Dec 17
Full
Dec 25
Last Quarter
Jan 1
New

Hourly Weather History & Observations

Time (CST) Temp. Windchill Dew Point Humidity Pressure Visibility Wind Dir Wind Speed Gust Speed Precip Events Conditions
12:15 AM 17.4 °F 6.2 °F 9.3 °F 71% 30.10 in 10.0 mi SSE 9.2 mph - N/A   Overcast
12:35 AM 17.4 °F 9.1 °F 8.6 °F 68% 30.09 in 10.0 mi South 5.8 mph - N/A   Overcast
12:55 AM 17.6 °F 7.3 °F 9.3 °F 70% 30.07 in 10.0 mi South 8.1 mph - N/A   Overcast
1:15 AM 17.4 °F 4.7 °F 10.0 °F 73% 30.05 in 10.0 mi South 11.5 mph - N/A   Overcast
1:35 AM 17.4 °F 10.4 °F 10.8 °F 75% 30.05 in 10.0 mi South 4.6 mph - N/A   Overcast
1:55 AM 17.6 °F 5.7 °F 10.6 °F 74% 30.04 in 10.0 mi South 10.4 mph - N/A   Overcast
2:15 AM 17.6 °F 5.7 °F 11.1 °F 76% 30.02 in 10.0 mi South 10.4 mph 16.1 mph N/A   Overcast
2:35 AM 17.4 °F 6.2 °F 11.1 °F 76% 30.00 in 10.0 mi South 9.2 mph 16.1 mph N/A   Overcast
2:55 AM 17.4 °F 7.1 °F 11.3 °F 77% 29.99 in 10.0 mi South 8.1 mph - N/A   Overcast
3:15 AM 17.4 °F 4.7 °F 11.7 °F 78% 29.99 in 10.0 mi South 11.5 mph - N/A   Overcast
3:35 AM 17.4 °F 5.4 °F 11.3 °F 77% 29.99 in 10.0 mi South 10.4 mph - N/A   Overcast
3:55 AM 17.6 °F 6.4 °F 10.9 °F 75% 29.97 in 10.0 mi South 9.2 mph 17.3 mph N/A   Overcast
4:15 AM 17.6 °F 7.3 °F 11.1 °F 76% 29.97 in 10.0 mi South 8.1 mph - N/A   Overcast
4:35 AM 18.0 °F 7.7 °F 10.8 °F 73% 29.96 in 10.0 mi SSW 8.1 mph - N/A   Overcast
4:55 AM 18.0 °F 6.9 °F 10.4 °F 72% 29.95 in 10.0 mi SSW 9.2 mph - N/A   Overcast
5:15 AM 18.3 °F 7.3 °F 10.4 °F 71% 29.94 in 10.0 mi SSW 9.2 mph - N/A   Overcast
5:35 AM 18.5 °F 6.1 °F 11.1 °F 73% 29.93 in 10.0 mi SSW 11.5 mph 16.1 mph N/A   Overcast
5:55 AM 18.1 °F 6.3 °F 11.3 °F 75% 29.93 in 10.0 mi SSW 10.4 mph - N/A   Overcast
6:15 AM 18.0 °F 5.4 °F 11.3 °F 75% 29.93 in 10.0 mi SSW 11.5 mph 17.3 mph N/A   Overcast
6:35 AM 18.0 °F 6.9 °F 11.5 °F 76% 29.92 in 10.0 mi SSW 9.2 mph - N/A   Overcast
6:55 AM 18.5 °F 5.5 °F 12.2 °F 76% 29.92 in 10.0 mi SSW 12.7 mph - N/A   Overcast
7:15 AM 18.5 °F 7.5 °F 12.2 °F 76% 29.91 in 10.0 mi SSW 9.2 mph - N/A   Overcast
7:35 AM 19.2 °F 8.4 °F 13.1 °F 77% 29.90 in 10.0 mi SSW 9.2 mph - N/A   Overcast
7:55 AM 19.8 °F 10.8 °F 14.2 °F 79% 29.91 in 10.0 mi SSW 6.9 mph - N/A   Overcast
8:15 AM 20.3 °F 9.8 °F 14.9 °F 80% 29.90 in 10.0 mi South 9.2 mph - N/A   Overcast
8:35 AM 21.2 °F 10.9 °F 15.8 °F 80% 29.89 in 10.0 mi South 9.2 mph - N/A   Overcast
8:55 AM 21.9 °F 13.4 °F 16.5 °F 80% 29.88 in 10.0 mi South 6.9 mph - N/A   Overcast
9:15 AM 23.2 °F 14.1 °F 17.4 °F 79% 29.88 in 10.0 mi South 8.1 mph - N/A   Overcast
9:35 AM 24.8 °F 15.3 °F 18.1 °F 76% 29.88 in 10.0 mi South 9.2 mph - N/A   Mostly Cloudy
9:55 AM 26.2 °F 17.1 °F 18.5 °F 73% 29.87 in 10.0 mi South 9.2 mph - N/A   Clear
10:15 AM 30.0 °F 21.7 °F 20.8 °F 69% 29.87 in 10.0 mi South 9.2 mph - N/A   Clear
10:35 AM 33.1 °F 26.1 °F 22.3 °F 65% 29.86 in 10.0 mi SSW 8.1 mph - N/A   Clear
10:55 AM 35.1 °F 28.6 °F 23.0 °F 61% 29.86 in 10.0 mi SW 8.1 mph 11.5 mph N/A   Clear
11:15 AM 36.7 °F 28.9 °F 23.4 °F 59% 29.85 in 10.0 mi South 11.5 mph - N/A   Clear
11:35 AM 39.9 °F 33.4 °F 24.4 °F 54% 29.85 in 10.0 mi SSW 10.4 mph - N/A   Clear
11:55 AM 41.9 °F 35.9 °F 24.6 °F 50% 29.83 in 10.0 mi South 10.4 mph 16.1 mph N/A   Clear
12:15 PM 43.2 °F 37.4 °F 23.9 °F 47% 29.82 in 10.0 mi South 10.4 mph - N/A   Clear
12:35 PM 46.0 °F 41.4 °F 24.1 °F 42% 29.81 in 10.0 mi SSW 9.2 mph - N/A   Clear
12:55 PM 47.5 °F - 23.7 °F 39% 29.80 in 10.0 mi South 9.2 mph - N/A   Clear
1:15 PM 52.0 °F - 24.4 °F 34% 29.79 in 10.0 mi WSW 15.0 mph 19.6 mph N/A   Scattered Clouds
1:35 PM 54.9 °F - 23.4 °F 30% 29.79 in 10.0 mi West 25.3 mph 36.8 mph N/A   Scattered Clouds
1:55 PM 55.4 °F - 22.5 °F 28% 29.78 in 10.0 mi West 28.8 mph 36.8 mph N/A   Clear
2:15 PM 55.4 °F - 19.0 °F 24% 29.78 in 10.0 mi West 26.5 mph 36.8 mph N/A   Clear
2:35 PM 54.9 °F - 16.7 °F 22% 29.79 in 10.0 mi West 19.6 mph 31.1 mph N/A   Clear
2:55 PM 54.9 °F - 17.6 °F 23% 29.80 in 10.0 mi WNW 25.3 mph 29.9 mph N/A   Clear
3:15 PM 54.0 °F - 17.6 °F 24% 29.81 in 10.0 mi West 26.5 mph 32.2 mph N/A   Clear
3:35 PM 53.6 °F - 17.1 °F 24% 29.83 in 10.0 mi West 21.9 mph 31.1 mph N/A   Clear
3:55 PM 53.6 °F - 10.9 °F 18% 29.83 in 10.0 mi West 21.9 mph 29.9 mph N/A   Clear
4:15 PM 52.5 °F - 8.2 °F 17% 29.84 in 10.0 mi West 21.9 mph 32.2 mph N/A   Clear
4:35 PM 51.8 °F - 9.0 °F 18% 29.85 in 10.0 mi West 15.0 mph 26.5 mph N/A   Clear
4:55 PM 50.9 °F - 7.7 °F 17% 29.87 in 10.0 mi West 19.6 mph 32.2 mph N/A   Clear
5:15 PM 40.8 °F 32.6 °F 21.2 °F 46% 29.90 in 10.0 mi North 16.1 mph 24.2 mph N/A   Clear
5:35 PM 37.6 °F 29.1 °F 21.2 °F 52% 29.92 in 10.0 mi NNW 13.8 mph - N/A   Clear
5:55 PM 36.0 °F 26.7 °F 21.0 °F 55% 29.94 in 10.0 mi NNW 15.0 mph - N/A   Clear
6:15 PM 34.9 °F 24.9 °F 20.8 °F 57% 29.97 in 10.0 mi NNW 16.1 mph - N/A   Clear
6:35 PM 33.6 °F 23.7 °F 19.4 °F 56% 29.98 in 10.0 mi North 15.0 mph - N/A   Clear
6:55 PM 32.0 °F 23.0 °F 20.8 °F 63% 30.01 in 10.0 mi North 11.5 mph 18.4 mph N/A   Clear
7:15 PM 30.6 °F 22.4 °F 19.8 °F 64% 30.04 in 10.0 mi NNE 9.2 mph - N/A   Clear
7:35 PM 28.8 °F 19.5 °F 18.5 °F 66% 30.05 in 10.0 mi NE 10.4 mph - N/A   Clear
7:55 PM 27.5 °F 20.2 °F 18.3 °F 68% 30.06 in 10.0 mi NE 6.9 mph - N/A   Clear
8:15 PM 26.2 °F 18.6 °F 18.0 °F 71% 30.08 in 10.0 mi ENE 6.9 mph - N/A   Clear
8:35 PM 26.2 °F 20.7 °F 18.3 °F 72% 30.09 in 10.0 mi NE 4.6 mph - N/A   Mostly Cloudy
8:55 PM 26.2 °F 17.1 °F 18.1 °F 71% 30.09 in 10.0 mi NNE 9.2 mph - N/A   Overcast
9:15 PM 26.2 °F 17.1 °F 18.9 °F 74% 30.09 in 10.0 mi NNE 9.2 mph - N/A   Overcast
9:35 PM 26.2 °F 17.8 °F 19.9 °F 77% 30.11 in 10.0 mi NNE 8.1 mph - N/A   Overcast
9:55 PM 25.7 °F 17.1 °F 19.2 °F 76% 30.10 in 10.0 mi North 8.1 mph - N/A   Overcast
10:15 PM 23.0 °F 11.7 °F 17.6 °F 80% 30.11 in 10.0 mi NNE 11.5 mph - N/A   Scattered Clouds
10:35 PM 21.6 °F 13.0 °F 17.2 °F 83% 30.12 in 10.0 mi NNE 6.9 mph - N/A   Scattered Clouds
10:55 PM 21.2 °F 10.9 °F 17.1 °F 84% 30.13 in 10.0 mi NNE 9.2 mph - N/A   Mostly Cloudy
11:15 PM 21.0 °F 9.9 °F 16.7 °F 83% 30.13 in 10.0 mi North 10.4 mph - N/A   Mostly Cloudy
11:35 PM 20.7 °F 9.5 °F 15.8 °F 81% 30.14 in 10.0 mi NNE 10.4 mph - N/A   Overcast
11:55 PM 20.3 °F 11.5 °F 15.4 °F 81% 30.15 in 10.0 mi NNE 6.9 mph - N/A   Overcast